Location: Oroua River
(40.4333°S, 175.4333°E)
Time: 15:13:09
(UTC+00:00)

Cosmos 1452 Rocket - Pass Details

Date: 03 February 2023
Orbit: 765 x 775 km, 74.1° (Epoch: 22 March)

Event Time Altitude Azimuth Distance (km) Brightness Sun altitude
Rises 15:03:07 0° 198° (SSW) 3,281 7.2 -23.1°
Reaches altitude 10° 15:05:31 10° 196° (SSW) 2,345 6.4 -22.9°
Maximum altitude 15:10:52 77° 110° (ESE) 803 3.6 -22.2°
Enters shadow 15:15:05 16° 25° (NNE) 1,920 5.3 -21.7°
